El Dorado, AR

8:17 PM CDT on April 22, 2018 (GMT -0500)
South Arkansas Regional At Goodwin

Weather History for KELD - August, 2013

Change the Weather History Date:

Saturday, August 17, 2013

  Actual Average Record
Temperature  
Mean Temperature 73 °F 82 °F  
Max Temperature 85 °F 93 °F 106 °F (2000)
Min Temperature 60 °F 70 °F 53 °F (1992)
Degree Days  
Heating Degree Days 0 0  
Month to date heating degree days 0 0  
Since 1 June heating degree days 0 0  
Since 1 July heating degree days 0 0  
Cooling Degree Days 8 16  
Month to date cooling degree days 279 288  
Year to date cooling degree days 1436 1511  
Since 1 June cooling degree days 1158 1200  
Growing Degree Days 22 (Base 50)    
Moisture  
Dew Point 65 °F    
Average Humidity 76    
Maximum Humidity 97    
Minimum Humidity 55    
Precipitation  
Precipitation 0.00 in 0.10 in 0.72 in (1932)
Month to date precipitation T 1.76  
Year to date precipitation 25.82 33.20  
Snow  
Snow 0.00 in - - ()
Month to date snowfall 0.0  
Since 1 June snowfall 0.0  
Since 1 July snowfall 0.0  
Snow Depth 0.00 in    
Sea Level Pressure  
Sea Level Pressure 30.04 in    
Wind  
Wind Speed 6 mph (North)    
Max Wind Speed 14 mph    
Max Gust Speed 18 mph    
Visibility 9 miles    
Events      
T = Trace of Precipitation, MM = Missing Value Source: NWS Daily Summary

Daily Weather History Graph

Daily Weather History Graph

Search for Another Location

Airport or City:

Astronomy

Aug. 17, 2013 Rise Set
Actual Time 6:35 AM CDT 7:54 PM CDT
Civil Twilight 6:09 AM CDT 8:20 PM CDT
Nautical Twilight 5:38 AM CDT 8:51 PM CDT
Astronomical Twilight 5:06 AM CDT 9:23 PM CDT
Moon 5:05 PM CDT (8/17) 2:45 AM CDT (8/17)
Length of Visible Light 14h 10m
Length of Day
13h 18m
Waxing Gibbous, 84% of the Moon is Illuminated
Aug 17
Waxing Gibbous
Aug 20
Full
Aug 28
Last Quarter
Sep 5
New
Sep 12
First Quarter

Hourly Weather History & Observations

Time (CDT) Temp. Heat Index Dew Point Humidity Pressure Visibility Wind Dir Wind Speed Gust Speed Precip Events Conditions
12:53 AM 64.0 °F - 61.0 °F 90% 30.06 in 10.0 mi NNW 3.5 mph - N/A   Clear
1:53 AM 63.0 °F - 61.0 °F 93% 30.04 in 9.0 mi NNW 4.6 mph - N/A   Clear
2:53 AM 62.1 °F - 61.0 °F 96% 30.04 in 9.0 mi NNW 4.6 mph - N/A   Clear
3:53 AM 62.1 °F - 60.1 °F 93% 30.03 in 8.0 mi NNW 5.8 mph - N/A   Clear
4:53 AM 62.1 °F - 60.1 °F 93% 30.03 in 8.0 mi NNW 5.8 mph - N/A   Clear
5:53 AM 61.0 °F - 59.0 °F 93% 30.03 in 7.0 mi NNW 5.8 mph - N/A   Clear
6:53 AM 60.1 °F - 59.0 °F 96% 30.04 in 5.0 mi NNW 4.6 mph - N/A   Clear
7:53 AM 63.0 °F - 60.1 °F 90% 30.05 in 7.0 mi NW 6.9 mph - N/A   Clear
8:53 AM 66.9 °F - 63.0 °F 87% 30.06 in 9.0 mi North 3.5 mph - N/A   Scattered Clouds
9:05 AM 68.0 °F - 62.6 °F 83% 30.06 in 9.0 mi North 6.9 mph - N/A   Mostly Cloudy
9:53 AM 71.1 °F - 64.9 °F 81% 30.06 in 8.0 mi North 5.8 mph - N/A   Mostly Cloudy
10:09 AM 73.4 °F - 66.2 °F 78% 30.07 in 9.0 mi North 5.8 mph - N/A   Scattered Clouds
10:49 AM 73.4 °F - 66.2 °F 78% 30.07 in 9.0 mi NNW 6.9 mph - N/A   Mostly Cloudy
10:53 AM 73.9 °F - 66.9 °F 79% 30.06 in 9.0 mi NNW 8.1 mph - N/A   Mostly Cloudy
11:22 AM 77.0 °F - 66.2 °F 69% 30.07 in 10.0 mi Variable 6.9 mph - N/A   Mostly Cloudy
11:53 AM 79.0 °F - 66.0 °F 64% 30.06 in 10.0 mi North 9.2 mph - N/A   Mostly Cloudy
12:02 PM 78.8 °F - 66.2 °F 65% 30.06 in 10.0 mi NNW 11.5 mph - N/A   Scattered Clouds
12:11 PM 77.0 °F - 66.2 °F 69% 30.06 in 10.0 mi NNW 9.2 mph - N/A   Mostly Cloudy
12:33 PM 80.6 °F 82.7 °F 66.2 °F 61% 30.06 in 10.0 mi NNW 9.2 mph - N/A   Mostly Cloudy
12:42 PM 80.6 °F 82.7 °F 66.2 °F 61% 30.05 in 10.0 mi North 8.1 mph - N/A   Mostly Cloudy
12:53 PM 80.1 °F 82.3 °F 66.9 °F 64% 30.05 in 10.0 mi NNW 9.2 mph - N/A   Mostly Cloudy
1:19 PM 78.8 °F - 66.2 °F 65% 30.05 in 10.0 mi North 8.1 mph - N/A   Mostly Cloudy
1:26 PM 78.8 °F - 66.2 °F 65% 30.05 in 10.0 mi NNE 11.5 mph - N/A   Overcast
1:53 PM 79.0 °F - 66.9 °F 66% 30.04 in 10.0 mi North 11.5 mph - N/A   Mostly Cloudy
2:13 PM 78.8 °F - 66.2 °F 65% 30.04 in 10.0 mi NE 8.1 mph - N/A   Overcast
2:36 PM 82.4 °F 85.4 °F 68.0 °F 62% 30.04 in 10.0 mi NNE 11.5 mph 18.4 mph N/A   Scattered Clouds
2:53 PM 80.1 °F 82.3 °F 66.9 °F 64% 30.03 in 10.0 mi NNE 11.5 mph - N/A   Partly Cloudy
3:53 PM 82.0 °F 84.5 °F 66.9 °F 60% 30.01 in 10.0 mi NNE 6.9 mph - N/A   Partly Cloudy
4:53 PM 82.9 °F 85.0 °F 66.0 °F 56% 29.99 in 10.0 mi NE 10.4 mph - N/A   Clear
5:53 PM 84.0 °F 86.3 °F 66.0 °F 55% 29.99 in 10.0 mi NNE 4.6 mph - N/A   Partly Cloudy
6:53 PM 79.0 °F - 64.0 °F 60% 30.00 in 10.0 mi ENE 5.8 mph - N/A   Mostly Cloudy
7:53 PM 75.0 °F - 64.9 °F 71% 30.00 in 10.0 mi Calm Calm - N/A   Partly Cloudy
8:53 PM 72.0 °F - 66.0 °F 81% 30.01 in 10.0 mi Calm Calm - N/A   Clear
9:53 PM 70.0 °F - 66.0 °F 87% 30.03 in 10.0 mi NNE 3.5 mph - N/A   Clear
10:53 PM 69.1 °F - 66.0 °F 90% 30.03 in 10.0 mi North 3.5 mph - N/A   Clear
11:53 PM 70.0 °F - 66.0 °F 87% 30.03 in 10.0 mi Calm Calm - N/A   Clear